CP7 (DAVE)

Last updated on Sat Feb 11 2023 00:03:44 GMT+0000 (Coordinated Universal Time)

1 43615U 18070C 23040.90006581 .03225936 16756-6 13613-2 0 9990 2 43615 92.9864 200.7271 0007018 283.5819 76.4699 16.22968473248238
UTC large
Height (km)
Speed (km/s)
/
Latitude / Longitude
Inclination (degrees)
Orbital Period (minutes)
Azimuth
Elevation
Range (km)
Doppler Factor

Next 0 passes for location: London (51.5072 / 0.1276)

Sorry there are no passes over London.